Year,Month,Day,Hour,Minute,Value (Times are PST for temperature in C)
2014,05,01,00,00,17.10
2014,05,01,00,01,16.90
2014,05,01,00,02,16.70
2014,05,01,00,03,16.60
2014,05,01,00,04,16.50
2014,05,01,00,05,16.30
2014,05,01,00,06,16.20
2014,05,01,00,07,16.10
2014,05,01,00,08,16.00
2014,05,01,00,09,15.90
2014,05,01,00,10,15.80
2014,05,01,00,11,15.70
2014,05,01,00,12,15.60
2014,05,01,00,13,15.50
2014,05,01,00,14,15.40
2014,05,01,00,15,15.30
2014,05,01,00,16,15.20
2014,05,01,00,17,15.20
2014,05,01,00,18,15.10
2014,05,01,00,19,15.00
2014,05,01,00,20,15.00
2014,05,01,00,21,15.00
2014,05,01,00,22,15.00
2014,05,01,00,23,15.00
2014,05,01,00,24,15.00
2014,05,01,00,25,15.00
2014,05,01,00,26,15.00
2014,05,01,00,27,15.00
2014,05,01,00,28,15.00
2014,05,01,00,29,15.00
2014,05,01,00,30,15.00
2014,05,01,00,31,14.90
2014,05,01,00,32,14.90
2014,05,01,00,33,14.90
2014,05,01,00,34,14.90
2014,05,01,00,35,14.90
2014,05,01,00,36,14.90
2014,05,01,00,37,14.90
2014,05,01,00,38,14.90
2014,05,01,00,39,14.80
2014,05,01,00,40,14.80
2014,05,01,00,41,14.80
2014,05,01,00,42,14.80
2014,05,01,00,43,14.80
2014,05,01,00,44,14.70
2014,05,01,00,45,14.70
2014,05,01,00,46,14.70
2014,05,01,00,47,14.70
2014,05,01,00,48,14.60
2014,05,01,00,49,14.60
2014,05,01,00,50,14.60
2014,05,01,00,51,14.60
2014,05,01,00,52,14.50
2014,05,01,00,53,14.50
2014,05,01,00,54,14.40
2014,05,01,00,55,14.40
2014,05,01,00,56,14.40
2014,05,01,00,57,14.40
2014,05,01,00,58,14.40
2014,05,01,00,59,14.30
2014,05,01,01,00,14.30
2014,05,01,01,01,14.30
2014,05,01,01,02,14.30
2014,05,01,01,03,14.20
2014,05,01,01,04,14.20
2014,05,01,01,05,14.20
2014,05,01,01,06,14.20
2014,05,01,01,07,14.20
2014,05,01,01,08,14.20
2014,05,01,01,09,14.10
2014,05,01,01,10,14.10
2014,05,01,01,11,14.10
2014,05,01,01,12,14.10
2014,05,01,01,13,14.00
2014,05,01,01,14,14.00
2014,05,01,01,15,14.00
2014,05,01,01,16,13.90
2014,05,01,01,17,13.90
2014,05,01,01,18,13.90
2014,05,01,01,19,13.90
2014,05,01,01,20,13.90
2014,05,01,01,21,13.80
2014,05,01,01,22,13.80
2014,05,01,01,23,13.90
2014,05,01,01,24,13.90
2014,05,01,01,25,13.90
2014,05,01,01,26,13.90
2014,05,01,01,27,14.00
2014,05,01,01,28,14.00
2014,05,01,01,29,14.10
2014,05,01,01,30,14.10
2014,05,01,01,31,14.20
2014,05,01,01,32,14.20
2014,05,01,01,33,14.30
2014,05,01,01,34,14.40
2014,05,01,01,35,14.50
2014,05,01,01,36,14.60
2014,05,01,01,37,14.70
2014,05,01,01,38,14.80
2014,05,01,01,39,14.90
2014,05,01,01,40,15.00
2014,05,01,01,41,15.00
2014,05,01,01,42,15.00
2014,05,01,01,43,15.00
2014,05,01,01,44,15.00
2014,05,01,01,45,15.00
2014,05,01,01,46,15.00
2014,05,01,01,47,15.00
2014,05,01,01,48,15.00
2014,05,01,01,49,15.00
2014,05,01,01,50,15.00
2014,05,01,01,51,15.00
2014,05,01,01,52,15.00
2014,05,01,01,53,15.00
2014,05,01,01,54,15.00
2014,05,01,01,55,15.00
2014,05,01,01,56,15.00
2014,05,01,01,57,15.00
2014,05,01,01,58,15.00
2014,05,01,01,59,15.00
2014,05,01,02,00,15.00
2014,05,01,02,01,15.00
2014,05,01,02,02,15.00
2014,05,01,02,03,15.00
2014,05,01,02,04,15.00
2014,05,01,02,05,14.90
2014,05,01,02,06,14.90
2014,05,01,02,07,14.90
2014,05,01,02,08,14.90
2014,05,01,02,09,14.90
2014,05,01,02,10,14.90
2014,05,01,02,11,14.90
2014,05,01,02,12,14.90
2014,05,01,02,13,14.90
2014,05,01,02,14,14.90
2014,05,01,02,15,14.90
2014,05,01,02,16,14.80
2014,05,01,02,17,14.80
2014,05,01,02,18,14.80
2014,05,01,02,19,14.80
2014,05,01,02,20,14.80
2014,05,01,02,21,14.70
2014,05,01,02,22,14.70
2014,05,01,02,23,14.70
2014,05,01,02,24,14.70
2014,05,01,02,25,14.70
2014,05,01,02,26,14.70
2014,05,01,02,27,14.70
2014,05,01,02,28,14.70
2014,05,01,02,29,14.70
2014,05,01,02,30,14.70
2014,05,01,02,31,14.70
2014,05,01,02,32,14.70
2014,05,01,02,33,14.70
2014,05,01,02,34,14.70
2014,05,01,02,35,14.70
2014,05,01,02,36,14.70
2014,05,01,02,37,14.70
2014,05,01,02,38,14.70
2014,05,01,02,39,14.70
2014,05,01,02,40,14.70
2014,05,01,02,41,14.80
2014,05,01,02,42,14.80
2014,05,01,02,43,14.80
2014,05,01,02,44,14.90
2014,05,01,02,45,14.90
2014,05,01,02,46,15.00
2014,05,01,02,47,15.00
2014,05,01,02,48,15.00
2014,05,01,02,49,15.00
2014,05,01,02,50,15.00
2014,05,01,02,51,15.00
2014,05,01,02,52,15.00
2014,05,01,02,53,15.00
2014,05,01,02,54,15.00
2014,05,01,02,55,15.00
2014,05,01,02,56,15.00
2014,05,01,02,57,15.00
2014,05,01,02,58,15.00
2014,05,01,02,59,15.00
2014,05,01,03,00,15.00
2014,05,01,03,01,15.00
2014,05,01,03,02,15.00
2014,05,01,03,03,15.00
2014,05,01,03,04,15.00
2014,05,01,03,05,15.00
2014,05,01,03,06,15.00
2014,05,01,03,07,15.00
2014,05,01,03,08,15.00
2014,05,01,03,09,15.00
2014,05,01,03,10,15.00
2014,05,01,03,11,15.00
2014,05,01,03,12,15.00
2014,05,01,03,13,15.00
2014,05,01,03,14,15.00
2014,05,01,03,15,15.00
2014,05,01,03,16,15.00
2014,05,01,03,17,15.00
2014,05,01,03,18,15.00
2014,05,01,03,19,15.00
2014,05,01,03,20,15.00
2014,05,01,03,21,15.10
2014,05,01,03,22,15.10
2014,05,01,03,23,15.10
2014,05,01,03,24,15.10
2014,05,01,03,25,15.20
2014,05,01,03,26,15.20
2014,05,01,03,27,15.20
2014,05,01,03,28,15.20
2014,05,01,03,29,15.20
2014,05,01,03,30,15.20
2014,05,01,03,31,15.20
2014,05,01,03,32,15.20
2014,05,01,03,33,15.20
2014,05,01,03,34,15.20
2014,05,01,03,35,15.20
2014,05,01,03,36,15.20
2014,05,01,03,37,15.20
2014,05,01,03,38,15.20
2014,05,01,03,39,15.20
2014,05,01,03,40,15.20
2014,05,01,03,41,15.20
2014,05,01,03,42,15.10
2014,05,01,03,43,15.10
2014,05,01,03,44,15.10
2014,05,01,03,45,15.10
2014,05,01,03,46,15.10
2014,05,01,03,47,15.10
2014,05,01,03,48,15.10
2014,05,01,03,49,15.00
2014,05,01,03,50,15.00
2014,05,01,03,51,15.00
2014,05,01,03,52,15.00
2014,05,01,03,53,15.00
2014,05,01,03,54,15.00
2014,05,01,03,55,15.00
2014,05,01,03,56,15.00
2014,05,01,03,57,15.00
2014,05,01,03,58,15.00
2014,05,01,03,59,15.00
2014,05,01,04,00,15.00
2014,05,01,04,01,15.00
2014,05,01,04,02,15.00
2014,05,01,04,03,15.00
2014,05,01,04,04,15.00
2014,05,01,04,05,15.00
2014,05,01,04,06,15.00
2014,05,01,04,07,15.00
2014,05,01,04,08,15.00
2014,05,01,04,09,15.00
2014,05,01,04,10,15.00
2014,05,01,04,11,15.00
2014,05,01,04,12,15.00
2014,05,01,04,13,15.00
2014,05,01,04,14,15.00
2014,05,01,04,15,15.00
2014,05,01,04,16,15.00
2014,05,01,04,17,15.00
2014,05,01,04,18,15.00
2014,05,01,04,19,15.00
2014,05,01,04,20,15.00
2014,05,01,04,21,15.00
2014,05,01,04,22,15.00
2014,05,01,04,23,15.00
2014,05,01,04,24,15.00
2014,05,01,04,25,15.00
2014,05,01,04,26,15.00
2014,05,01,04,27,15.00
2014,05,01,04,28,15.00
2014,05,01,04,29,15.00
2014,05,01,04,30,15.00
2014,05,01,04,31,15.00
2014,05,01,04,32,15.00
2014,05,01,04,33,15.00
2014,05,01,04,34,15.00
2014,05,01,04,35,15.00
2014,05,01,04,36,15.00
2014,05,01,04,37,15.00
2014,05,01,04,38,15.00
2014,05,01,04,39,15.00
2014,05,01,04,40,15.00
2014,05,01,04,41,15.00
2014,05,01,04,42,15.00
2014,05,01,04,43,15.00
2014,05,01,04,44,14.90
2014,05,01,04,45,14.90
2014,05,01,04,46,14.80
2014,05,01,04,47,14.80
2014,05,01,04,48,14.80
2014,05,01,04,49,14.70
2014,05,01,04,50,14.70
2014,05,01,04,51,14.70
2014,05,01,04,52,14.60
2014,05,01,04,53,14.60
2014,05,01,04,54,14.60
2014,05,01,04,55,14.50
2014,05,01,04,56,14.50
2014,05,01,04,57,14.50
2014,05,01,04,58,14.40
2014,05,01,04,59,14.40
2014,05,01,05,00,14.40
2014,05,01,05,01,14.30
2014,05,01,05,02,14.30
2014,05,01,05,03,14.30
2014,05,01,05,04,14.20
2014,05,01,05,05,14.20
2014,05,01,05,06,14.20
2014,05,01,05,07,14.10
2014,05,01,05,08,14.10
2014,05,01,05,09,14.00
2014,05,01,05,10,14.00
2014,05,01,05,11,14.00
2014,05,01,05,12,14.00
2014,05,01,05,13,14.00
2014,05,01,05,14,14.00
2014,05,01,05,15,14.00
2014,05,01,05,16,14.00
2014,05,01,05,17,14.00
2014,05,01,05,18,14.00
2014,05,01,05,19,14.00
2014,05,01,05,20,13.90
2014,05,01,05,21,13.90
2014,05,01,05,22,13.90
2014,05,01,05,23,13.90
2014,05,01,05,24,14.00
2014,05,01,05,25,14.00
2014,05,01,05,26,13.90
2014,05,01,05,27,13.90
2014,05,01,05,28,13.90
2014,05,01,05,29,13.90
2014,05,01,05,30,13.90
2014,05,01,05,31,13.90
2014,05,01,05,32,13.90
2014,05,01,05,33,13.90
2014,05,01,05,34,13.90
2014,05,01,05,35,13.80
2014,05,01,05,36,13.80
2014,05,01,05,37,13.80
2014,05,01,05,38,13.80
2014,05,01,05,39,13.80
2014,05,01,05,40,13.70
2014,05,01,05,41,13.70
2014,05,01,05,42,13.70
2014,05,01,05,43,13.70
2014,05,01,05,44,13.70
2014,05,01,05,45,13.70
2014,05,01,05,46,13.70
2014,05,01,05,47,13.70
2014,05,01,05,48,13.70
2014,05,01,05,49,13.70
2014,05,01,05,50,13.70
2014,05,01,05,51,13.70
2014,05,01,05,52,13.70
2014,05,01,05,53,13.60
2014,05,01,05,54,13.60
2014,05,01,05,55,13.60
2014,05,01,05,56,13.60
2014,05,01,05,57,13.60
2014,05,01,05,58,13.60
2014,05,01,05,59,13.60
2014,05,01,06,00,13.60
2014,05,01,06,01,13.60
2014,05,01,06,02,13.50
2014,05,01,06,03,13.50
2014,05,01,06,04,13.50
2014,05,01,06,05,13.50
2014,05,01,06,06,13.50
2014,05,01,06,07,13.50
2014,05,01,06,08,13.50
2014,05,01,06,09,13.50
2014,05,01,06,10,13.50
2014,05,01,06,11,13.50
2014,05,01,06,12,13.50
2014,05,01,06,13,13.60
2014,05,01,06,14,13.60
2014,05,01,06,15,13.60
2014,05,01,06,16,13.60
2014,05,01,06,17,13.60
2014,05,01,06,18,13.60
2014,05,01,06,19,13.60
2014,05,01,06,20,13.60
2014,05,01,06,21,13.60
2014,05,01,06,22,13.60
2014,05,01,06,23,13.60
2014,05,01,06,24,13.60
2014,05,01,06,25,13.60
2014,05,01,06,26,13.60
2014,05,01,06,27,13.60
2014,05,01,06,28,13.60
2014,05,01,06,29,13.60
2014,05,01,06,30,13.70
2014,05,01,06,31,13.70
2014,05,01,06,32,13.70
2014,05,01,06,33,13.80
2014,05,01,06,34,13.80
2014,05,01,06,35,13.80
2014,05,01,06,36,13.80
2014,05,01,06,37,13.90
2014,05,01,06,38,13.90
2014,05,01,06,39,13.90
2014,05,01,06,40,13.90
2014,05,01,06,41,13.90
2014,05,01,06,42,14.00
2014,05,01,06,43,14.00
2014,05,01,06,44,14.10
2014,05,01,06,45,14.10
2014,05,01,06,46,14.10
2014,05,01,06,47,14.20
2014,05,01,06,48,14.20
2014,05,01,06,49,14.20
2014,05,01,06,50,14.30
2014,05,01,06,51,14.30
2014,05,01,06,52,14.30
2014,05,01,06,53,14.30
2014,05,01,06,54,14.40
2014,05,01,06,55,14.40
2014,05,01,06,56,14.40
2014,05,01,06,57,14.40
2014,05,01,06,58,14.40
2014,05,01,06,59,14.40
2014,05,01,07,00,14.50
2014,05,01,07,01,14.50
2014,05,01,07,02,14.50
2014,05,01,07,03,14.50
2014,05,01,07,04,14.50
2014,05,01,07,05,14.50
2014,05,01,07,06,14.50
2014,05,01,07,07,14.50
2014,05,01,07,08,14.50
2014,05,01,07,09,14.50
2014,05,01,07,10,14.50
2014,05,01,07,11,14.50
2014,05,01,07,12,14.50
2014,05,01,07,13,14.50
2014,05,01,07,14,14.50
2014,05,01,07,15,14.50
2014,05,01,07,16,14.50
2014,05,01,07,17,14.50
2014,05,01,07,18,14.50
2014,05,01,07,19,14.50
2014,05,01,07,20,14.50
2014,05,01,07,21,14.60
2014,05,01,07,22,14.60
2014,05,01,07,23,14.60
2014,05,01,07,24,14.60
2014,05,01,07,25,14.70
2014,05,01,07,26,14.70
2014,05,01,07,27,14.70
2014,05,01,07,28,14.70
2014,05,01,07,29,14.80
2014,05,01,07,30,14.80
2014,05,01,07,31,14.90
2014,05,01,07,32,14.90
2014,05,01,07,33,14.90
2014,05,01,07,34,15.00
2014,05,01,07,35,15.00
2014,05,01,07,36,15.00
2014,05,01,07,37,15.00
2014,05,01,07,38,15.00
2014,05,01,07,39,15.00
2014,05,01,07,40,15.00
2014,05,01,07,41,15.00
2014,05,01,07,42,15.00
2014,05,01,07,43,15.00
2014,05,01,07,44,15.00
2014,05,01,07,45,15.00
2014,05,01,07,46,15.00
2014,05,01,07,47,15.00
2014,05,01,07,48,15.00
2014,05,01,07,49,15.00
2014,05,01,07,50,15.10
2014,05,01,07,51,15.10
2014,05,01,07,52,15.20
2014,05,01,07,53,15.20
2014,05,01,07,54,15.30
2014,05,01,07,55,15.40
2014,05,01,07,56,15.40
2014,05,01,07,57,15.50
2014,05,01,07,58,15.50
2014,05,01,07,59,15.60
2014,05,01,08,00,15.60
2014,05,01,08,01,15.60
2014,05,01,08,02,15.70
2014,05,01,08,03,15.70
2014,05,01,08,04,15.70
2014,05,01,08,05,15.70
2014,05,01,08,06,15.70
2014,05,01,08,07,15.80
2014,05,01,08,08,15.80
2014,05,01,08,09,15.80
2014,05,01,08,10,15.90
2014,05,01,08,11,15.90
2014,05,01,08,12,15.90
2014,05,01,08,13,16.00
2014,05,01,08,14,16.00
2014,05,01,08,15,16.10
2014,05,01,08,16,16.20
2014,05,01,08,17,16.20
2014,05,01,08,18,16.30
2014,05,01,08,19,16.30
2014,05,01,08,20,16.40
2014,05,01,08,21,16.50
2014,05,01,08,22,16.50
2014,05,01,08,23,16.60
2014,05,01,08,24,16.70
2014,05,01,08,25,16.70
2014,05,01,08,26,16.80
2014,05,01,08,27,16.90
2014,05,01,08,28,16.90
2014,05,01,08,29,16.90
2014,05,01,08,30,16.90
2014,05,01,08,31,17.00
2014,05,01,08,32,17.00
2014,05,01,08,33,17.00
2014,05,01,08,34,17.00
2014,05,01,08,35,17.10
2014,05,01,08,36,17.10
2014,05,01,08,37,17.20
2014,05,01,08,38,17.20
2014,05,01,08,39,17.20
2014,05,01,08,40,17.20
2014,05,01,08,41,17.20
2014,05,01,08,42,17.20
2014,05,01,08,43,17.10
2014,05,01,08,44,17.10
2014,05,01,08,45,17.10
2014,05,01,08,46,17.10
2014,05,01,08,47,17.10
2014,05,01,08,48,17.20
2014,05,01,08,49,17.20
2014,05,01,08,50,17.20
2014,05,01,08,51,17.30
2014,05,01,08,52,17.30
2014,05,01,08,53,17.40
2014,05,01,08,54,17.40
2014,05,01,08,55,17.40
2014,05,01,08,56,17.40
2014,05,01,08,57,17.40
2014,05,01,08,58,17.40
2014,05,01,08,59,17.40
2014,05,01,09,00,17.50
2014,05,01,09,01,17.50
2014,05,01,09,02,17.50
2014,05,01,09,03,17.60
2014,05,01,09,04,17.60
2014,05,01,09,05,17.70
2014,05,01,09,06,17.70
2014,05,01,09,07,17.70
2014,05,01,09,08,17.70
2014,05,01,09,09,17.70
2014,05,01,09,10,17.80
2014,05,01,09,11,17.80
2014,05,01,09,12,17.90
2014,05,01,09,13,17.90
2014,05,01,09,14,18.00
2014,05,01,09,15,18.00
2014,05,01,09,16,17.90
2014,05,01,09,17,17.90
2014,05,01,09,18,17.90
2014,05,01,09,19,17.80
2014,05,01,09,20,17.80
2014,05,01,09,21,17.80
2014,05,01,09,22,17.70
2014,05,01,09,23,17.80
2014,05,01,09,24,17.80
2014,05,01,09,25,17.80
2014,05,01,09,26,17.90
2014,05,01,09,27,17.90
2014,05,01,09,28,17.90
2014,05,01,09,29,17.90
2014,05,01,09,30,17.90
2014,05,01,09,31,17.90
2014,05,01,09,32,17.90
2014,05,01,09,33,17.90
2014,05,01,09,34,17.90
2014,05,01,09,35,17.90
2014,05,01,09,36,17.90
2014,05,01,09,37,18.00
2014,05,01,09,38,18.10
2014,05,01,09,39,18.20
2014,05,01,09,40,18.20
2014,05,01,09,41,18.30
2014,05,01,09,42,18.30
2014,05,01,09,43,18.30
2014,05,01,09,44,18.20
2014,05,01,09,45,18.20
2014,05,01,09,46,18.20
2014,05,01,09,47,18.20
2014,05,01,09,48,18.20
2014,05,01,09,49,18.30
2014,05,01,09,50,18.40
2014,05,01,09,51,18.50
2014,05,01,09,52,18.60
2014,05,01,09,53,18.60
2014,05,01,09,54,18.70
2014,05,01,09,55,18.80
2014,05,01,09,56,18.80
2014,05,01,09,57,18.90
2014,05,01,09,58,18.90
2014,05,01,09,59,18.90
2014,05,01,10,00,19.00
2014,05,01,10,01,19.10
2014,05,01,10,02,19.10
2014,05,01,10,03,19.10
2014,05,01,10,04,19.10
2014,05,01,10,05,19.10
2014,05,01,10,06,19.00
2014,05,01,10,07,19.00
2014,05,01,10,08,19.10
2014,05,01,10,09,19.10
2014,05,01,10,10,19.20
2014,05,01,10,11,19.30
2014,05,01,10,12,19.40
2014,05,01,10,13,19.40
2014,05,01,10,14,19.30
2014,05,01,10,15,19.40
2014,05,01,10,16,19.40
2014,05,01,10,17,19.40
2014,05,01,10,18,19.40
2014,05,01,10,19,19.40
2014,05,01,10,20,19.40
2014,05,01,10,21,19.40
2014,05,01,10,22,19.40
2014,05,01,10,23,19.40
2014,05,01,10,24,19.30
2014,05,01,10,25,19.20
2014,05,01,10,26,19.10
2014,05,01,10,27,19.00
2014,05,01,10,28,19.00
2014,05,01,10,29,18.90
2014,05,01,10,30,18.90
2014,05,01,10,31,19.00
2014,05,01,10,32,19.00
2014,05,01,10,33,19.10
2014,05,01,10,34,19.10
2014,05,01,10,35,19.10
2014,05,01,10,36,19.00
2014,05,01,10,37,18.90
2014,05,01,10,38,18.90
2014,05,01,10,39,18.90
2014,05,01,10,40,18.90
2014,05,01,10,41,18.80
2014,05,01,10,42,18.80
2014,05,01,10,43,18.80
2014,05,01,10,44,18.80
2014,05,01,10,45,18.90
2014,05,01,10,46,19.00
2014,05,01,10,47,19.00
2014,05,01,10,48,19.10
2014,05,01,10,49,19.10
2014,05,01,10,50,19.10
2014,05,01,10,51,19.10
2014,05,01,10,52,19.10
2014,05,01,10,53,19.10
2014,05,01,10,54,19.10
2014,05,01,10,55,19.00
2014,05,01,10,56,19.00
2014,05,01,10,57,19.00
2014,05,01,10,58,19.00
2014,05,01,10,59,19.10
2014,05,01,11,00,19.00
2014,05,01,11,01,19.00
2014,05,01,11,02,19.00
2014,05,01,11,03,19.10
2014,05,01,11,04,19.10
2014,05,01,11,05,19.20
2014,05,01,11,06,19.30
2014,05,01,11,07,19.40
2014,05,01,11,08,19.50
2014,05,01,11,09,19.60
2014,05,01,11,10,19.60
2014,05,01,11,11,19.60
2014,05,01,11,12,19.60
2014,05,01,11,13,19.60
2014,05,01,11,14,19.60
2014,05,01,11,15,19.60
2014,05,01,11,16,19.60
2014,05,01,11,17,19.70
2014,05,01,11,18,19.80
2014,05,01,11,19,19.90
2014,05,01,11,20,20.00
2014,05,01,11,21,20.00
2014,05,01,11,22,19.90
2014,05,01,11,23,19.90
2014,05,01,11,24,20.00
2014,05,01,11,25,20.00
2014,05,01,11,26,20.00
2014,05,01,11,27,20.00
2014,05,01,11,28,20.00
2014,05,01,11,29,20.00
2014,05,01,11,30,20.00
2014,05,01,11,31,20.00
2014,05,01,11,32,20.00
2014,05,01,11,33,20.00
2014,05,01,11,34,19.90
2014,05,01,11,35,19.80
2014,05,01,11,36,19.60
2014,05,01,11,37,19.50
2014,05,01,11,38,19.40
2014,05,01,11,39,19.40
2014,05,01,11,40,19.40
2014,05,01,11,41,19.50
2014,05,01,11,42,19.50
2014,05,01,11,43,19.50
2014,05,01,11,44,19.40
2014,05,01,11,45,19.40
2014,05,01,11,46,19.20
2014,05,01,11,47,19.10
2014,05,01,11,48,19.00
2014,05,01,11,49,18.90
2014,05,01,11,50,18.90
2014,05,01,11,51,18.80
2014,05,01,11,52,18.80
2014,05,01,11,53,18.80
2014,05,01,11,54,18.80
2014,05,01,11,55,18.70
2014,05,01,11,56,18.70
2014,05,01,11,57,18.60
2014,05,01,11,58,18.50
2014,05,01,11,59,18.40
2014,05,01,12,00,18.40
2014,05,01,12,01,18.40
2014,05,01,12,02,18.40
2014,05,01,12,03,18.50
2014,05,01,12,04,18.60
2014,05,01,12,05,18.70
2014,05,01,12,06,18.70
2014,05,01,12,07,18.80
2014,05,01,12,08,18.80
2014,05,01,12,09,18.90
2014,05,01,12,10,18.90
2014,05,01,12,11,19.00
2014,05,01,12,12,19.10
2014,05,01,12,13,19.20
2014,05,01,12,14,19.30
2014,05,01,12,15,19.30
2014,05,01,12,16,19.30
2014,05,01,12,17,19.30
2014,05,01,12,18,19.30
2014,05,01,12,19,19.30
2014,05,01,12,20,19.30
2014,05,01,12,21,19.30
2014,05,01,12,22,19.30
2014,05,01,12,23,19.20
2014,05,01,12,24,19.20
2014,05,01,12,25,19.20
2014,05,01,12,26,19.20
2014,05,01,12,27,19.10
2014,05,01,12,28,19.10
2014,05,01,12,29,19.10
2014,05,01,12,30,19.10
2014,05,01,12,31,19.10
2014,05,01,12,32,19.00
2014,05,01,12,33,19.00
2014,05,01,12,34,19.00
2014,05,01,12,35,19.00
2014,05,01,12,36,19.00
2014,05,01,12,37,19.00
2014,05,01,12,38,19.00
2014,05,01,12,39,19.00
2014,05,01,12,40,19.00
2014,05,01,12,41,19.10
2014,05,01,12,42,19.20
2014,05,01,12,43,19.20
2014,05,01,12,44,19.20
2014,05,01,12,45,19.20
2014,05,01,12,46,19.10
2014,05,01,12,47,19.10
2014,05,01,12,48,19.20
2014,05,01,12,49,19.20
2014,05,01,12,50,19.10
2014,05,01,12,51,19.10
2014,05,01,12,52,19.10
2014,05,01,12,53,19.10
2014,05,01,12,54,19.10
2014,05,01,12,55,19.00
2014,05,01,12,56,19.00
2014,05,01,12,57,19.20
2014,05,01,12,58,19.30
2014,05,01,12,59,19.50
2014,05,01,13,00,19.60
2014,05,01,13,01,19.60
2014,05,01,13,02,19.60
2014,05,01,13,03,19.50
2014,05,01,13,04,19.50
2014,05,01,13,05,19.30
2014,05,01,13,06,19.30
2014,05,01,13,07,19.30
2014,05,01,13,08,19.40
2014,05,01,13,09,19.30
2014,05,01,13,10,19.40
2014,05,01,13,11,19.40
2014,05,01,13,12,19.40
2014,05,01,13,13,19.50
2014,05,01,13,14,19.50
2014,05,01,13,15,19.60
2014,05,01,13,16,19.60
2014,05,01,13,17,19.60
2014,05,01,13,18,19.60
2014,05,01,13,19,19.60
2014,05,01,13,20,19.60
2014,05,01,13,21,19.60
2014,05,01,13,22,19.60
2014,05,01,13,23,19.60
2014,05,01,13,24,19.60
2014,05,01,13,25,19.60
2014,05,01,13,26,19.70
2014,05,01,13,27,19.80
2014,05,01,13,28,19.90
2014,05,01,13,29,20.00
2014,05,01,13,30,20.10
2014,05,01,13,31,20.20
2014,05,01,13,32,20.30
2014,05,01,13,33,20.30
2014,05,01,13,34,20.30
2014,05,01,13,35,20.40
2014,05,01,13,36,20.50
2014,05,01,13,37,20.60
2014,05,01,13,38,20.60
2014,05,01,13,39,20.70
2014,05,01,13,40,20.80
2014,05,01,13,41,20.70
2014,05,01,13,42,20.70
2014,05,01,13,43,20.70
2014,05,01,13,44,20.70
2014,05,01,13,45,20.60
2014,05,01,13,46,20.50
2014,05,01,13,47,20.40
2014,05,01,13,48,20.40
2014,05,01,13,49,20.40
2014,05,01,13,50,20.40
2014,05,01,13,51,20.40
2014,05,01,13,52,20.40
2014,05,01,13,53,20.40
2014,05,01,13,54,20.40
2014,05,01,13,55,20.50
2014,05,01,13,56,20.50
2014,05,01,13,57,20.50
2014,05,01,13,58,20.50
2014,05,01,13,59,20.40
2014,05,01,14,00,20.40
2014,05,01,14,01,20.40
2014,05,01,14,02,20.50
2014,05,01,14,03,20.60
2014,05,01,14,04,20.70
2014,05,01,14,05,20.80
2014,05,01,14,06,20.90
2014,05,01,14,07,20.90
2014,05,01,14,08,21.00
2014,05,01,14,09,21.00
2014,05,01,14,10,21.00
2014,05,01,14,11,20.90
2014,05,01,14,12,20.90
2014,05,01,14,13,20.90
2014,05,01,14,14,20.90
2014,05,01,14,15,20.90
2014,05,01,14,16,20.90
2014,05,01,14,17,20.80
2014,05,01,14,18,20.70
2014,05,01,14,19,20.60
2014,05,01,14,20,20.60
2014,05,01,14,21,20.60
2014,05,01,14,22,20.50
2014,05,01,14,23,20.50
2014,05,01,14,24,20.50
2014,05,01,14,25,20.40
2014,05,01,14,26,20.40
2014,05,01,14,27,20.30
2014,05,01,14,28,20.30
2014,05,01,14,29,20.30
2014,05,01,14,30,20.30
2014,05,01,14,31,20.20
2014,05,01,14,32,20.20
2014,05,01,14,33,20.20
2014,05,01,14,34,20.20
2014,05,01,14,35,20.30
2014,05,01,14,36,20.30
2014,05,01,14,37,20.30
2014,05,01,14,38,20.30
2014,05,01,14,39,20.40
2014,05,01,14,40,20.40
2014,05,01,14,41,20.30
2014,05,01,14,42,20.40
2014,05,01,14,43,20.50
2014,05,01,14,44,20.50
2014,05,01,14,45,20.60
2014,05,01,14,46,20.60
2014,05,01,14,47,20.60
2014,05,01,14,48,20.50
2014,05,01,14,49,20.60
2014,05,01,14,50,20.60
2014,05,01,14,51,20.70
2014,05,01,14,52,20.80
2014,05,01,14,53,20.80
2014,05,01,14,54,20.90
2014,05,01,14,55,20.90
2014,05,01,14,56,20.90
2014,05,01,14,57,20.90
2014,05,01,14,58,20.80
2014,05,01,14,59,20.80
2014,05,01,15,00,20.80
2014,05,01,15,01,20.80
2014,05,01,15,02,20.70
2014,05,01,15,03,20.80
2014,05,01,15,04,20.80
2014,05,01,15,05,20.80
2014,05,01,15,06,20.80
2014,05,01,15,07,20.90
2014,05,01,15,08,20.90
2014,05,01,15,09,20.90
2014,05,01,15,10,21.00
2014,05,01,15,11,21.00
2014,05,01,15,12,21.10
2014,05,01,15,13,21.10
2014,05,01,15,14,21.20
2014,05,01,15,15,21.30
2014,05,01,15,16,21.40
2014,05,01,15,17,21.40
2014,05,01,15,18,21.50
2014,05,01,15,19,21.60
2014,05,01,15,20,21.60
2014,05,01,15,21,21.70
2014,05,01,15,22,21.80
2014,05,01,15,23,21.80
2014,05,01,15,24,21.90
2014,05,01,15,25,22.00
2014,05,01,15,26,22.00
2014,05,01,15,27,22.10
2014,05,01,15,28,22.20
2014,05,01,15,29,22.30
2014,05,01,15,30,22.50
2014,05,01,15,31,22.60
2014,05,01,15,32,22.80
2014,05,01,15,33,22.90
2014,05,01,15,34,23.10
2014,05,01,15,35,23.20
2014,05,01,15,36,23.30
2014,05,01,15,37,23.30
2014,05,01,15,38,23.30
2014,05,01,15,39,23.30
2014,05,01,15,40,23.30
2014,05,01,15,41,23.20
2014,05,01,15,42,23.10
2014,05,01,15,43,23.10
2014,05,01,15,44,23.00
2014,05,01,15,45,22.90
2014,05,01,15,46,22.80
2014,05,01,15,47,22.80
2014,05,01,15,48,22.70
2014,05,01,15,49,22.70
2014,05,01,15,50,22.70
2014,05,01,15,51,22.60
2014,05,01,15,52,22.70
2014,05,01,15,53,22.70
2014,05,01,15,54,22.80
2014,05,01,15,55,22.80
2014,05,01,15,56,22.90
2014,05,01,15,57,22.90
2014,05,01,15,58,22.90
2014,05,01,15,59,22.80
2014,05,01,16,00,22.80
2014,05,01,16,01,22.70
2014,05,01,16,02,22.70
2014,05,01,16,03,22.70
2014,05,01,16,04,22.70
2014,05,01,16,05,22.70
2014,05,01,16,06,22.70
2014,05,01,16,07,22.70
2014,05,01,16,08,22.60
2014,05,01,16,09,22.60
2014,05,01,16,10,22.60
2014,05,01,16,11,22.60
2014,05,01,16,12,22.60
2014,05,01,16,13,22.60
2014,05,01,16,14,22.60
2014,05,01,16,15,22.60
2014,05,01,16,16,22.60
2014,05,01,16,17,22.60
2014,05,01,16,18,22.50
2014,05,01,16,19,22.50
2014,05,01,16,20,22.50
2014,05,01,16,21,22.60
2014,05,01,16,22,22.60
2014,05,01,16,23,22.60
2014,05,01,16,24,22.60
2014,05,01,16,25,22.60
2014,05,01,16,26,22.70
2014,05,01,16,27,22.70
2014,05,01,16,28,22.80
2014,05,01,16,29,22.80
2014,05,01,16,30,22.80
2014,05,01,16,31,22.80
2014,05,01,16,32,22.80
2014,05,01,16,33,22.80
2014,05,01,16,34,22.90
2014,05,01,16,35,23.00
2014,05,01,16,36,23.10
2014,05,01,16,37,23.20
2014,05,01,16,38,23.20
2014,05,01,16,39,23.30
2014,05,01,16,40,23.30
2014,05,01,16,41,23.30
2014,05,01,16,42,23.30
2014,05,01,16,43,23.30
2014,05,01,16,44,23.30
2014,05,01,16,45,23.30
2014,05,01,16,46,23.30
2014,05,01,16,47,23.30
2014,05,01,16,48,23.30
2014,05,01,16,49,23.30
2014,05,01,16,50,23.30
2014,05,01,16,51,23.30
2014,05,01,16,52,23.30
2014,05,01,16,53,23.30
2014,05,01,16,54,23.40
2014,05,01,16,55,23.30
2014,05,01,16,56,23.40
2014,05,01,16,57,23.40
2014,05,01,16,58,23.40
2014,05,01,16,59,23.40
2014,05,01,17,00,23.30
2014,05,01,17,01,23.30
2014,05,01,17,02,23.30
2014,05,01,17,03,23.20
2014,05,01,17,04,23.20
2014,05,01,17,05,23.20
2014,05,01,17,06,23.20
2014,05,01,17,07,23.10
2014,05,01,17,08,23.10
2014,05,01,17,09,23.00
2014,05,01,17,10,23.00
2014,05,01,17,11,22.90
2014,05,01,17,12,22.90
2014,05,01,17,13,22.90
2014,05,01,17,14,22.90
2014,05,01,17,15,22.90
2014,05,01,17,16,22.90
2014,05,01,17,17,22.90
2014,05,01,17,18,22.90
2014,05,01,17,19,23.00